"Pseudo-MPEC" for P116fnT

Created 2020 Sep 19 11:07:39 UT using Find_Orb

Click here for an explanation of pseudo-MPECs

 
 Astrometry: 
     P116fnT  C2020 09 16!]%q0p+HWl:J@-s0LN`?DaSJv%U@ly`cc0nZXLr*mL7@\nv7m]j=F51
     P116fnT  C2020 09 16YILS)rRi[*v20+:IW+jnI^j:+(*;-No6F!\qZfGlvJQjM/u=#yVGF51
     P116fnT  C2020 09 169a)xdAstrometryE+lnvmoVOA6oh\El45@wd7TcmUW/_Us*:?x62F51
     P116fnT  C2020 09 16Gl;h\dW?/#-xw^c58L(m]7R8d6-*4Cp\jf$LP[E:9,86j!K((.PeF51
     P116fnT ^C2020 09 17.23184420 26 06.887-18 43 53.88   ~9H6b 21.27GVNEOCP568
     P116fnT ^C2020 09 17.23279220 26 07.098-18 43 55.54   ~9H6b 21.10GVNEOCP568
     P116fnT ^C2020 09 17.23374920 26 07.312-18 43 57.21   ~9H6b 21.15GVNEOCP568
     P116fnT  C2020 09 18.12327 20 29 44.57 -19 09 39.5    ~9I3M 22.0 GVNEOCPV06
     P116fnT  C2020 09 18.12594 20 29 45.15 -19 09 44.2    ~9I3M 21.6 GVNEOCPV06
     P116fnT  C2020 09 18.12860 20 29 45.80 -19 09 48.7    ~9I3M 21.3 GVNEOCPV06
     P116fnT  C2020 09 18.13127 20 29 46.42 -19 09 53.1    ~9I3M 21.4 GVNEOCPV06
     P116fnT KC2020 09 18y\XdseH-.redacted;rCR^H%5]$OP1gg!Cl^%T4jTprCgtQPlN(Q711
     P116fnT KC2020 09 18Pa@hfow6_R3,68`$]:O_frM`#WS,_*\G$$gsCdc\pwhaiOeLCn20711
     P116fnT KC2020 09 18A9clickpDp#*/aAVeEw8Ba%XSm?Bv^o@-[*NtLjXWS?x0_waw@Iy711
     P116fnT  C2020 09 18y[,FTOClx=yYGMS!TwY1PSc:8:5Z%i3:OZn$#:V@:5AABBusV`$/F52
     P116fnT  C2020 09 18#r!rNj,SY@G/ogW0DQ$3rE0nu]$5;3m4hebYqp87q!kgCHwAy!.KF52
     P116fnT  C2020 09 18tuVx1qfX+hereTCH3:r,i'w0$F-EybT%cLy8(w#Tc[_r$a+s31%#F52
     P116fnT KC2020 09 19mgKuq7%[TQZG41JhO`'GCR7Vp3es!6OP-QgffvrforFC,XGN--/.474
     P116fnT KC2020 09 19R`q/$hBi;wZjMgvo.bk/hfA5n(w#6#VPN?/;RW92@Tx5b:h#n.D^474
     P116fnT KC2020 09 19[%p85!f.0)$bexplanation:=O7)nMk/-32u1:wkuVb3F=yTM\Xi474

Station data:
(474) Mount John Observatory, Lake Tekapo  (S43.987388 E170.464960)  New
   Zealand.  Observers A. C. Gilmore, P. M. Kilmartin. Measurer P. M.
   Kilmartin. 1.0-m f/7.7 reflector + CCD.
(568) Mauna Kea  (N19.826116 W155.472200)  US/Hawaii.
(711) McDonald Observatory, Fort Davis  (N30.671481 W104.021500)  US/Texas.
   0.76-m f/3.0 reflector.
(F51) Pan-STARRS 1, Haleakala  (N20.707235 W156.255910)  US/Hawaii.
   Observers N. Primak, A. Schultz, S. Watters, J. Thiel, T. Goggia. Measurer
   PS1 Science Consortium. 1.8-m Ritchey-Chrétien + CCD.
(F52) Pan-STARRS 2, Haleakala  (N20.707384 W156.255910)  US/Hawaii. 1.8-m
   Ritchey-Chrétien + CCD.
(V06) Catalina Sky Survey-Kuiper  (N32.416847 W110.732550)  US/Arizona.
   Observers T. A. Pruyne, B. M. Africano, E. J. Christensen, G. A. Farneth,
   D. C. Fuls, A. R. Gibbs, A. D. Grauer, H. Gröller, J. A. Johnson, R. A.
   Kowalski, S. M. Larson, G. J. Leonard, D. Rankin, R. L. Seaman, F. C.
   Shelly. 1.55-m reflector + CCD.

Orbital elements:  P116fnT
   Perihelion 2020 Sep 26.440665 +/- 0.029 TT = 10:34:33 (JD 2459118.940665)
Epoch 2020 Sep 19.0 TT = JDT 2459111.5   Earth MOID: 0.1420   AutoNEOCP
M 357.90235737 +/- 0.028            (J2000 ecliptic)
n   0.28191601 +/- 0.00334          Peri.  188.37641 +/- 0.030
a   2.30350709 +/- 0.0182           Node   167.08156 +/- 0.039
e   0.5022254 +/- 0.00357           Incl.    7.49678 +/- 0.036
P   3.50                   H 23.1   G  0.15   U  8.9  
q 1.14662722 +/- 0.000865    Q 3.46038697 +/- 0.036
From 20 observations 2020 Sept. 16-19; mean residual 0".26
Residuals in arcseconds: 
200916 F51  .14+  .08+    200918 V06  .36+  .05+    200918 F52  .03+  .36+    
200916 F51  .04-  .13+    200918 V06  .23-  .03-    200918 F52  .51+  .01+    
200916 F51  .12-  .15-    200918 V06  .20+  .08+    200918 F52  .08+  .33-    
200916 F51  .01+  .08+    200918 V06  .18+  .29+    200919 474  .13+  .26+    
200917 568  .09+  .08-    200918 711  .02+  .64-    200919 474  .05+  .18+    
200917 568  .06+  .07-    200918 711  .34-  .04+    200919 474  .16-  .39-    
200917 568  .04+  .04-    200918 711  .94-  .24+    

Ephemerides (geocentric):
Date (UTC) HH   RA              Dec         delta   r     elong  mag " sig PA
---- -- -- --  -------------   -----------  ------ ------ -----  --- ---- ---
2020 09 19 11  20 35 21.524   -19 46 42.52  .20986 1.1494 129.5 21.6 .103  60
2020 09 19 12  20 35 32.276   -19 47 51.85  .20985 1.1493 129.5 21.6 .109  63
2020 09 19 13  20 35 43.041   -19 49 01.11  .20984 1.1493 129.5 21.6 .114  64
2020 09 19 14  20 35 53.819   -19 50 10.31  .20983 1.1493 129.5 21.6 .120  66
2020 09 19 15  20 36 04.609   -19 51 19.44  .20982 1.1492 129.5 21.6 .127  68
2020 09 19 16  20 36 15.412   -19 52 28.50  .20981 1.1492 129.5 21.6 .133  69
2020 09 19 17  20 36 26.228   -19 53 37.49  .20980 1.1492 129.5 21.6 .140  70
2020 09 19 18  20 36 37.057   -19 54 46.41  .20979 1.1492 129.4 21.6 .147  71
2020 09 19 19  20 36 47.898   -19 55 55.26  .20978 1.1491 129.4 21.6 .155  73
2020 09 19 20  20 36 58.751   -19 57 04.05  .20977 1.1491 129.4 21.6 .162  74
2020 09 19 21  20 37 09.618   -19 58 12.76  .20976 1.1491 129.4 21.6 .170  74
2020 09 19 22  20 37 20.497   -19 59 21.40  .20975 1.1490 129.4 21.6 .177  75
2020 09 19 23  20 37 31.389   -20 00 29.97  .20974 1.1490 129.4 21.6 .185  76
2020 09 20 00  20 37 42.293   -20 01 38.47  .20973 1.1490 129.4 21.6 .194  77
2020 09 20 01  20 37 53.210   -20 02 46.90  .20972 1.1489 129.4 21.6 .202  77
2020 09 20 02  20 38 04.139   -20 03 55.26  .20971 1.1489 129.4 21.6 .210  78
2020 09 20 03  20 38 15.081   -20 05 03.54  .20970 1.1489 129.4 21.6 .219  78
2020 09 20 04  20 38 26.036   -20 06 11.76  .20969 1.1488 129.4 21.6 .228  79
2020 09 20 05  20 38 37.003   -20 07 19.89  .20969 1.1488 129.4 21.6 .237  79
2020 09 20 06  20 38 47.983   -20 08 27.96  .20968 1.1488 129.4 21.6 .246  79
2020 09 20 07  20 38 58.975   -20 09 35.95  .20967 1.1488 129.4 21.6 .256  80
2020 09 20 08  20 39 09.980   -20 10 43.87  .20966 1.1487 129.4 21.6 .265  80
2020 09 20 09  20 39 20.997   -20 11 51.72  .20965 1.1487 129.4 21.6 .275  80
2020 09 20 10  20 39 32.026   -20 12 59.49  .20965 1.1487 129.4 21.6 .285  81
2020 09 20 11  20 39 43.068   -20 14 07.18  .20964 1.1486 129.4 21.6 .295  81
2020 09 20 12  20 39 54.123   -20 15 14.80  .20963 1.1486 129.4 21.6 .305  81
2020 09 20 13  20 40 05.190   -20 16 22.35  .20963 1.1486 129.4 21.6 .315  81
2020 09 20 14  20 40 16.269   -20 17 29.82  .20962 1.1486 129.4 21.6 .326  82
2020 09 20 15  20 40 27.360   -20 18 37.21  .20961 1.1485 129.3 21.6 .336  82
2020 09 20 16  20 40 38.464   -20 19 44.53  .20961 1.1485 129.3 21.6 .347  82
2020 09 20 17  20 40 49.581   -20 20 51.77  .20960 1.1485 129.3 21.6 .358  82
2020 09 20 18  20 41 00.709   -20 21 58.93  .20959 1.1485 129.3 21.6 .369  82
2020 09 20 19  20 41 11.850   -20 23 06.02  .20959 1.1484 129.3 21.6 .380  82
2020 09 20 20  20 41 23.004   -20 24 13.02  .20958 1.1484 129.3 21.6 .392  82
2020 09 20 21  20 41 34.169   -20 25 19.95  .20958 1.1484 129.3 21.6 .403  83
2020 09 20 22  20 41 45.347   -20 26 26.80  .20957 1.1483 129.3 21.6 .415  83
2020 09 20 23  20 41 56.537   -20 27 33.57  .20957 1.1483 129.3 21.6 .427  83
2020 09 21 00  20 42 07.740   -20 28 40.27  .20956 1.1483 129.3 21.6 .439  83
2020 09 21 01  20 42 18.954   -20 29 46.88  .20956 1.1483 129.3 21.6 .451  83
2020 09 21 02  20 42 30.181   -20 30 53.41  .20955 1.1482 129.3 21.6 .463  83
2020 09 21 03  20 42 41.420   -20 31 59.86  .20955 1.1482 129.3 21.6 .475  83
2020 09 21 04  20 42 52.671   -20 33 06.24  .20954 1.1482 129.3 21.6 .488  83
2020 09 21 05  20 43 03.934   -20 34 12.53  .20954 1.1482 129.3 21.6 .501  83
2020 09 21 06  20 43 15.210   -20 35 18.74  .20953 1.1481 129.3 21.6 .514  83
2020 09 21 07  20 43 26.497   -20 36 24.87  .20953 1.1481 129.3 21.6 .527  83
2020 09 21 08  20 43 37.797   -20 37 30.91  .20953 1.1481 129.3 21.6 .540  83
2020 09 21 09  20 43 49.108   -20 38 36.88  .20952 1.1481 129.3 21.6 .553  83
2020 09 21 10  20 44 00.432   -20 39 42.76  .20952 1.1481 129.3 21.6 .567  83